Location: Ostrava
(49.8330°N, 18.2830°E)
Time: 22:28:39
(UTC+01:00)

Explorer 7 - Visible Passes

Search period start: 31 October 2014 00:00
Search period end: 10 November 2014 00:00
Orbit: 491 x 704 km, 50.3° (Epoch: 31 October)

Date Brightness Start Highest point End Pass type
(mag) Time Alt. Az. Time Alt. Az. Time Alt. Az.
31 Oct 9.9 02:38:31 15° E 02:38:31 15° E 02:39:21 10° ENE visible
31 Oct 7.0 04:15:09 70° WNW 04:15:40 85° N 04:20:32 10° E visible
31 Oct 7.6 05:51:59 10° WNW 05:56:36 57° SSW 06:01:26 10° SE visible
01 Nov 9.7 02:48:11 18° E 02:48:11 18° E 02:49:22 10° E visible
01 Nov 7.0 04:24:49 59° W 04:25:42 88° S 04:30:34 10° ESE visible
01 Nov 8.0 06:02:02 10° W 06:06:28 42° SSW 06:11:07 10° SE visible
02 Nov 9.5 02:57:52 20° E 02:57:52 20° E 02:59:24 10° E visible
02 Nov 7.1 04:34:30 49° W 04:35:41 75° SSW 04:40:32 10° ESE visible
03 Nov 9.3 03:07:34 23° E 03:07:34 23° E 03:09:26 10° E visible
03 Nov 7.3 04:44:13 41° W 04:45:36 58° SSW 04:50:22 10° SE visible
04 Nov 9.1 03:17:19 26° E 03:17:19 26° E 03:19:26 10° E visible
04 Nov 7.7 04:53:58 32° WSW 04:55:28 43° SSW 05:00:03 10° SE visible
05 Nov 8.9 03:27:07 27° ESE 03:27:07 27° ESE 03:29:23 10° ESE visible
05 Nov 8.2 05:03:46 25° WSW 05:05:14 30° SW 05:09:27 10° SSE visible
06 Nov 8.9 03:36:58 27° SE 03:36:58 27° SE 03:39:13 10° ESE visible
06 Nov 8.6 05:13:38 18° WSW 05:14:56 20° SW 05:18:28 10° S visible
07 Nov 9.0 03:46:54 23° SSE 03:46:54 23° SSE 03:48:52 10° SE visible
07 Nov 9.1 05:23:34 12° WSW 05:24:32 13° SW 05:26:43 10° SSW visible
08 Nov 9.2 03:56:54 17° SSE 03:56:54 17° SSE 03:58:17 10° SSE visible
09 Nov 9.6 04:06:58 11° S 04:06:58 11° S 04:07:19 10° S visible
